カタログに戻る

YUNYAO-1 46

運用中科学SSO
NORAD 63347·PAYLOAD·🇨🇳 China

打ち上げ Mar 21, 2025 から Jiuquan Satellite Launch Center

Loading…

次のパス (今後24時間)

TLE

最新Source: Space-Track

元期: Sep 14, 2026, 22:51 UTC

1 63347U 25059D   26257.95275348  .00002470  00000-0  15016-3 0  9998
2 63347  97.6151  78.9319 0011259 189.4915 170.6104 15.11365477 81857

AllMySatでYUNYAO-1 46をリアルタイム追跡

Download on the App Store